Find Starlink 31385

NORAD ID: 58985 Int'l Des: 2024-031 Owner: SPXS Country: US Constellation: starlink operational
LEOCIRCULAR

現在のビュー

3D地球を読み込み中...

About Starlink 31385

Starlink 31385 (NORAD 58985) is a starlink constellation satellite (v2 mini) launched Feb 15, 2024 by SPXS of US. It operates in LEO, CIRCULAR orbit with a mass of 730.00 kg.

Starlink 31385について

説明を読み込み中...

次回通過

Passes for default location (London). Set your location on the main map for personalized predictions.

高度履歴

Loading altitude history...

軌道要素

1 58985U 24031W 26170.31349549 -.00003511 00000-0 -92825-4 0 9991
2 58985 53.1596 180.9761 0001078 102.6281 257.4843 15.34404417132129
Epoch: Jun 19, 2026 • Age: 18 hours

現在のステータス

高度 481.5 km
速度 7.62 km/s
衛星直下点 -52.13°S, 166.71°E
打ち上げ日 Feb 15, 2024
運用期間 2.3 years
タイプ internet

技術仕様

分類 Payload
質量 730.00 kg
乾燥質量 700.00 kg
総質量 730.00 kg
長さ 0.30 m
直径 4.10 m
スパン 29.00 m
形状 Box + pan
製造者 SPXS
バスタイプ Starlink V2M
フェーズステータス In Orbit
所有者/国 SPXS/US

Most Searched